When you browse on this site, cookies collect data to enhance your experience and personalize the content and advertising you see.
Visit our Privacy Policy to learn more. By continuing to use the site, you agree to this use of cookies and data.
EN

Hourly Weather Draganesti-Olt

Today, 5 July, Sunday

Time Temperature Precipitation Wind Pressure Humidity
00:00 +22°C° 0.1 mm 3 mps 752 mmHg 80%
01:00 +23°C° 0.1 mm 2 mps 752 mmHg 84%
02:00 +21°C° 0.1 mm 2 mps 752 mmHg 89%
03:00 +21°C° 0 mm 2 mps 752 mmHg 91%
04:00 +20°C° 0 mm 2 mps 752 mmHg 92%
05:00 +20°C° 0 mm 2 mps 752 mmHg 94%
06:00 +21°C° 0 mm 3 mps 752 mmHg 89%
07:00 +22°C° 0 mm 3 mps 752 mmHg 84%
08:00 +25°C° 0 mm 3 mps 753 mmHg 78%
09:00 +26°C° 0 mm 3 mps 753 mmHg 73%
10:00 +27°C° 0 mm 3 mps 753 mmHg 68%
11:00 +28°C° 0 mm 3 mps 753 mmHg 64%
12:00 +29°C° 0.1 mm 2 mps 753 mmHg 61%
13:00 +30°C° 0.1 mm 2 mps 752 mmHg 58%
14:00 +31°C° 0.1 mm 2 mps 752 mmHg 54%
15:00 +31°C° 0.1 mm 2 mps 752 mmHg 53%
16:00 +31°C° 0.1 mm 2 mps 751 mmHg 52%
17:00 +31°C° 0.1 mm 2 mps 751 mmHg 51%
18:00 +30°C° 0 mm 1 mps 751 mmHg 56%
19:00 +29°C° 0 mm 1 mps 752 mmHg 61%
20:00 +27°C° 0 mm 1 mps 752 mmHg 66%
21:00 +27°C° 0.1 mm 2 mps 752 mmHg 67%
22:00 +26°C° 0.1 mm 2 mps 752 mmHg 69%
23:00 +25°C° 0.1 mm 2 mps 752 mmHg 71%

Tomorrow, 6 July, Monday

Time Temperature Precipitation Wind Pressure Humidity
00:00 +25°C° 0.2 mm 2 mps 752 mmHg 75%
01:00 +24°C° 0.2 mm 2 mps 752 mmHg 78%
02:00 +23°C° 0.2 mm 2 mps 752 mmHg 82%
03:00 +23°C° 0.2 mm 1 mps 751 mmHg 84%
04:00 +23°C° 0.2 mm 1 mps 751 mmHg 86%
05:00 +22°C° 0.2 mm 1 mps 751 mmHg 87%
06:00 +24°C° 0 mm 1 mps 751 mmHg 81%
07:00 +25°C° 0 mm 2 mps 751 mmHg 75%
08:00 +27°C° 0 mm 2 mps 751 mmHg 70%
09:00 +28°C° 0.2 mm 3 mps 751 mmHg 66%
10:00 +29°C° 0.2 mm 3 mps 751 mmHg 63%
11:00 +30°C° 0.2 mm 4 mps 750 mmHg 60%
12:00 +30°C° 0 mm 3 mps 750 mmHg 57%
13:00 +31°C° 0 mm 3 mps 750 mmHg 53%
14:00 +33°C° 0 mm 3 mps 749 mmHg 50%
15:00 +32°C° 0 mm 2 mps 749 mmHg 49%
16:00 +32°C° 0 mm 2 mps 748 mmHg 48%
17:00 +32°C° 0 mm 1 mps 748 mmHg 48%
18:00 +31°C° 0.1 mm 2 mps 748 mmHg 55%
19:00 +29°C° 0.1 mm 2 mps 748 mmHg 62%
20:00 +27°C° 0.1 mm 2 mps 748 mmHg 69%
21:00 +26°C° 0.7 mm 2 mps 748 mmHg 72%
22:00 +25°C° 0.7 mm 2 mps 748 mmHg 76%
23:00 +24°C° 0.7 mm 2 mps 748 mmHg 79%

Day after tomorrow, 7 July, Tuesday

Time Temperature Precipitation Wind Pressure Humidity
00:00 +24°C° 0.5 mm 2 mps 748 mmHg 81%
01:00 +23°C° 0.5 mm 2 mps 747 mmHg 83%
02:00 +23°C° 0.5 mm 2 mps 747 mmHg 85%
03:00 +23°C° 0.3 mm 2 mps 747 mmHg 85%
04:00 +21°C° 0.3 mm 2 mps 747 mmHg 86%
05:00 +22°C° 0.3 mm 1 mps 746 mmHg 87%
06:00 +23°C° 0 mm 1 mps 747 mmHg 82%
07:00 +25°C° 0 mm 1 mps 747 mmHg 77%
08:00 +26°C° 0 mm 1 mps 747 mmHg 72%
09:00 +27°C° 0.5 mm 2 mps 747 mmHg 69%
10:00 +28°C° 0.5 mm 3 mps 747 mmHg 66%
11:00 +29°C° 0.5 mm 4 mps 747 mmHg 63%
12:00 +29°C° 0.9 mm 5 mps 747 mmHg 64%
13:00 +28°C° 0.9 mm 7 mps 747 mmHg 64%
14:00 +27°C° 0.9 mm 8 mps 747 mmHg 65%
15:00 +26°C° 0.3 mm 8 mps 747 mmHg 66%
16:00 +26°C° 0.3 mm 8 mps 748 mmHg 67%
17:00 +24°C° 0.3 mm 8 mps 748 mmHg 67%
18:00 +23°C° 0.1 mm 8 mps 748 mmHg 70%
19:00 +21°C° 0.1 mm 7 mps 749 mmHg 72%
20:00 +20°C° 0.1 mm 7 mps 749 mmHg 75%
21:00 +18°C° 0.1 mm 7 mps 750 mmHg 75%
22:00 +17°C° 0.1 mm 7 mps 750 mmHg 76%
23:00 +16°C° 0.1 mm 7 mps 750 mmHg 77%

8 July, Wednesday

Time Temperature Precipitation Wind Pressure Humidity
00:00 +16°C° 0.2 mm 6 mps 751 mmHg 79%
01:00 +16°C° 0.2 mm 5 mps 751 mmHg 80%
02:00 +15°C° 0.2 mm 4 mps 751 mmHg 82%
03:00 +15°C° 0.2 mm 4 mps 751 mmHg 83%
04:00 +15°C° 0.2 mm 4 mps 751 mmHg 85%
05:00 +14°C° 0.2 mm 4 mps 751 mmHg 86%
06:00 +15°C° 0.6 mm 4 mps 752 mmHg 85%
07:00 +15°C° 0.6 mm 4 mps 752 mmHg 84%
08:00 +17°C° 0.6 mm 3 mps 752 mmHg 83%
09:00 +17°C° 0.1 mm 3 mps 753 mmHg 82%
10:00 +18°C° 0.1 mm 3 mps 753 mmHg 81%
11:00 +18°C° 0.1 mm 3 mps 754 mmHg 80%
12:00 +19°C° 0 mm 3 mps 754 mmHg 78%
13:00 +20°C° 0 mm 3 mps 754 mmHg 75%
14:00 +20°C° 0 mm 2 mps 754 mmHg 73%
15:00 +21°C° 0 mm 2 mps 754 mmHg 72%
16:00 +21°C° 0 mm 2 mps 754 mmHg 71%
17:00 +22°C° 0 mm 1 mps 754 mmHg 70%
18:00 +22°C° 0 mm 1 mps 754 mmHg 73%
19:00 +21°C° 0 mm 1 mps 754 mmHg 76%
20:00 +21°C° 0 mm 1 mps 754 mmHg 79%
21:00 +20°C° 0 mm 1 mps 755 mmHg 83%
22:00 +19°C° 0 mm 1 mps 755 mmHg 87%
23:00 +18°C° 0 mm 1 mps 755 mmHg 91%

9 July, Thursday

Time Temperature Precipitation Wind Pressure Humidity
00:00 +18°C° 0 mm 1 mps 755 mmHg 91%
01:00 +18°C° 0 mm 1 mps 756 mmHg 91%
02:00 +18°C° 0 mm 1 mps 756 mmHg 91%
03:00 +18°C° 0 mm 1 mps 756 mmHg 92%
04:00 +16°C° 0 mm 1 mps 756 mmHg 92%
05:00 +16°C° 0 mm 1 mps 756 mmHg 92%
06:00 +19°C° 0 mm 1 mps 756 mmHg 85%
07:00 +20°C° 0 mm 1 mps 756 mmHg 79%
08:00 +22°C° 0 mm 1 mps 756 mmHg 73%
09:00 +23°C° 0 mm 1 mps 756 mmHg 68%
10:00 +25°C° 0 mm 2 mps 756 mmHg 63%
11:00 +26°C° 0 mm 2 mps 756 mmHg 58%
12:00 +27°C° 0 mm 2 mps 756 mmHg 56%
13:00 +28°C° 0 mm 2 mps 756 mmHg 53%
14:00 +28°C° 0 mm 2 mps 756 mmHg 50%
15:00 +29°C° 0 mm 1 mps 755 mmHg 50%
16:00 +29°C° 0 mm 1 mps 755 mmHg 49%
17:00 +29°C° 0 mm 1 mps 755 mmHg 49%
18:00 +28°C° 0 mm 1 mps 755 mmHg 54%
19:00 +26°C° 0 mm 1 mps 755 mmHg 59%
20:00 +25°C° 0 mm 1 mps 755 mmHg 64%
21:00 +24°C° 0 mm 1 mps 756 mmHg 67%
22:00 +23°C° 0 mm 2 mps 756 mmHg 71%
23:00 +21°C° 0 mm 2 mps 756 mmHg 74%

10 July, Friday

Time Temperature Precipitation Wind Pressure Humidity
00:00 +21°C° 0 mm 2 mps 756 mmHg 75%
01:00 +21°C° 0 mm 2 mps 756 mmHg 75%
02:00 +21°C° 0 mm 3 mps 756 mmHg 75%
03:00 +21°C° 0 mm 3 mps 756 mmHg 73%
04:00 +20°C° 0 mm 4 mps 756 mmHg 71%
05:00 +20°C° 0 mm 4 mps 756 mmHg 69%
06:00 +21°C° 0 mm 4 mps 756 mmHg 67%
07:00 +21°C° 0 mm 4 mps 756 mmHg 65%
08:00 +22°C° 0 mm 4 mps 756 mmHg 64%
09:00 +23°C° 0 mm 4 mps 756 mmHg 60%
10:00 +25°C° 0 mm 3 mps 756 mmHg 57%
11:00 +26°C° 0 mm 3 mps 756 mmHg 54%
12:00 +27°C° 0 mm 3 mps 756 mmHg 53%
13:00 +27°C° 0 mm 3 mps 755 mmHg 52%
14:00 +28°C° 0 mm 2 mps 755 mmHg 51%
15:00 +28°C° 0 mm 2 mps 755 mmHg 49%
16:00 +28°C° 0 mm 2 mps 754 mmHg 47%
17:00 +29°C° 0 mm 1 mps 754 mmHg 46%
18:00 +27°C° 0 mm 1 mps 754 mmHg 51%
19:00 +26°C° 0 mm 1 mps 754 mmHg 56%
20:00 +24°C° 0 mm 1 mps 754 mmHg 61%
21:00 +24°C° 0 mm 1 mps 754 mmHg 63%
22:00 +23°C° 0 mm 1 mps 754 mmHg 64%
23:00 +22°C° 0 mm 1 mps 755 mmHg 66%
Show more